[[{"header":{"parameterUnit":"m.s-1","parameterCategory":1,"la1":30.2991,"la2":30.254,"lo1":-89.0895,"lo2":-89.0444,"dy":0.0017,"dx":0.0017,"nx":28,"ny":28,"refTime":"2025-07-07T09:00:00:Z","depth":0,"parameterNumber":2,"parameterNumberName":"U-component_of_WINDS"},"data":[0,0,0,0,0,0,0,0,0,0,0,0,0,0,0,0,0,0,0,0,0,0,0,0,0,0,0,0,0,0,0,0,0,0,0,0,0,0,0,0,0,0,0,0,0,0,0,0,0,0,0,0,0,0,0,0,0,0,1.291,1.2912,0,1.3103,1.3105,1.3107,1.3191,1.319,1.319,1.319,1.3389,1.3395,1.34,0,0,0,0,0,0,0,0,0,0,0,0,0,1.2615,1.262,1.2909,1.2912,1.2914,1.3102,1.3105,1.3108,1.3191,1.319,1.319,1.319,1.3388,1.3394,1.3401,0,0,0,0,0,0,0,0,0,0,0,0,0,1.2769,1.2621,1.2909,1.2978,1.2987,1.3102,1.3105,1.3108,1.3191,1.319,1.319,1.3189,1.3385,1.3394,1.3402,1.3463,0,0,1.3428,1.3431,0,0,0,0,0,0,0,0,1.276,1.278,1.2966,1.2974,1.2983,1.3122,1.3074,1.3227,1.3191,1.3113,1.319,1.3189,1.3301,1.3316,1.3354,1.3473,1.3481,1.3428,1.3433,1.3437,1.3439,0,0,0,0,0,0,0,1.2749,1.2772,1.2986,1.2968,1.2979,1.3001,1.3022,1.3104,1.3207,1.312,1.3126,1.3148,1.3306,1.3345,1.3359,1.3484,1.3428,1.3436,1.3441,1.3444,1.3664,1.3664,0,0,0,0,0,0,1.2727,1.2762,1.298,1.2992,1.2868,1.3006,1.303,1.3078,1.3207,1.3226,1.3148,1.3151,1.3331,1.3349,1.3366,1.3447,1.3437,1.3445,1.345,1.3663,1.3664,1.3665,0,0,0,0,0,0,1.272,1.2745,1.2972,1.2879,1.2909,1.3012,1.3065,1.3082,1.3122,1.3228,1.3247,1.317,1.3331,1.3354,1.3439,1.3455,1.3449,1.3456,1.3662,1.3663,1.3664,1.3608,0,0,0,0,0,0,1.2711,1.2743,1.2766,1.2879,1.2914,1.304,1.3066,1.3086,1.3136,1.3141,1.3253,1.3271,1.3333,1.3425,1.3447,1.3467,1.3463,1.3661,1.3663,1.3664,1.3609,1.3607,1.3606,0,0,0,0,0,1.2701,1.2743,1.2767,1.2793,1.2946,1.3041,1.3061,1.3131,1.3137,1.3162,1.323,1.3268,1.345,1.3433,1.3458,1.3481,1.366,1.3662,1.3664,1.361,1.3608,1.3606,0,0,0,0,0,0,1.2631,1.2759,1.2787,1.2867,1.2942,1.3055,1.3089,1.3126,1.3202,1.3204,1.3287,1.3312,1.3389,1.3443,1.3423,1.3547,1.3558,1.3565,1.3509,1.3507,1.3506,1.3491,1.347,0,0,0,0,0,1.2624,1.269,1.2799,1.286,1.2896,1.2985,1.303,1.3076,1.3158,1.319,1.3265,1.3343,1.3418,1.3466,1.3541,1.3617,1.3643,1.3645,1.3643,1.3641,1.3646,1.3692,1.3694,1.3671,1.3671,1.3671,0,0,1.2613,1.2691,1.2728,1.2848,1.2911,1.2978,1.3012,1.3081,1.3132,1.3201,1.3285,1.3342,1.3435,1.3516,1.3555,1.3564,1.3659,1.3644,1.3641,1.3648,1.3694,1.3696,1.3697,1.3672,1.3672,1.3671,0,0,1.2625,1.2691,1.2749,1.2812,1.2908,1.2967,1.298,1.3088,1.3128,1.3213,1.3267,1.3329,1.3456,1.352,1.3569,1.3606,1.3643,1.3628,1.362,1.3663,1.3664,1.3666,1.368,1.3684,1.3633,1.3632,1.3632,0,1.2599,1.2701,1.2773,1.284,1.2892,1.2957,1.3016,1.3074,1.3189,1.3224,1.3231,1.3392,1.346,1.3556,1.3565,1.3603,1.3621,1.3616,1.3658,1.3661,1.3664,1.3678,1.3683,1.363,1.363,1.363,1.3631,0,1.2664,1.2734,1.2769,1.2878,1.2934,1.2996,1.3079,1.3126,1.3168,1.3227,1.3313,1.3396,1.3489,1.3515,1.3557,1.3618,1.362,1.3642,1.3655,1.3662,1.3677,1.3683,1.3626,1.3627,1.3628,1.3629,0,0,1.2638,1.2786,1.2798,1.2849,1.2959,1.3016,1.3081,1.3171,1.3211,1.3288,1.3346,1.3452,1.3472,1.3528,1.3578,1.3615,1.364,1.3633,1.3636,1.3632,1.3712,1.3695,1.37,1.3665,1.3666,1.3667,1.3705,0,1.2666,1.2786,1.2853,1.2945,1.3012,1.3074,1.3132,1.3206,1.3263,1.3328,1.3391,1.3464,1.3486,1.352,1.356,1.3628,1.3657,1.3626,1.372,1.3723,1.3695,1.3708,1.3691,1.3722,1.3711,1.3712,1.3713,0,1.2715,1.2791,1.2889,1.2993,1.3023,1.3073,1.3161,1.3222,1.3308,1.3347,1.3408,1.3458,1.353,1.3537,1.3639,1.3616,1.3658,1.3698,1.3701,1.3713,1.3718,1.372,1.3734,1.3738,1.3722,1.3721,1.3721,0,1.2686,1.2813,1.2889,1.293,1.3053,1.3086,1.3139,1.3224,1.3274,1.3352,1.3385,1.3469,1.3516,1.3581,1.3652,1.365,1.3746,1.3759,1.3781,1.3779,1.3799,1.3797,1.3819,1.3825,1.3825,1.3825,1.3825,0,1.2711,1.2769,1.2878,1.2924,1.2991,1.3068,1.3133,1.319,1.3266,1.3325,1.3384,1.3439,1.3529,1.3595,1.3652,1.3727,1.3748,1.3781,1.3796,1.3776,1.3772,1.3806,1.3805,1.3826,1.3826,1.3826,1.3825,0,1.2691,1.2766,1.2853,1.2961,1.299,1.3034,1.3128,1.3176,1.3235,1.3309,1.3331,1.3425,1.3505,1.3583,1.3691,1.3729,1.3804,1.3823,1.3775,1.3783,1.3801,1.3798,1.3846,1.3856,1.3854,1.3854,1.3854,0,1.2702,1.2748,1.2861,1.2905,1.2956,1.3026,1.3077,1.3154,1.3205,1.3306,1.3342,1.3427,1.3499,1.3625,1.3703,1.3786,1.3808,1.3818,1.382,1.38,1.3808,1.3805,1.381,1.3817,1.3816,1.3816,1.3816,0,1.2713,1.2748,1.2819,1.2903,1.2963,1.3033,1.3105,1.3138,1.3229,1.3283,1.3366,1.3422,1.3532,1.3616,1.3708,1.3763,1.3805,1.3814,1.3824,1.3805,1.3775,1.3792,1.377,1.3813,1.3813,1.3814,1.3814,1.3814,1.271,1.2753,1.284,1.2918,1.298,1.3046,1.3096,1.3162,1.3232,1.3327,1.3369,1.3453,1.3538,1.3666,1.372,1.3787,1.3797,1.3811,1.3814,1.3817,1.3813,1.3764,1.3804,1.3804,1.3804,1.3805,1.3805,0,1.2724,1.2783,1.2853,1.2953,1.3014,1.3047,1.3129,1.3178,1.325,1.3326,1.3395,1.3491,1.3572,1.3656,1.3743,1.378,1.3801,1.38,1.3798,1.3811,1.3799,1.3782,1.3781,1.3781,1.3781,1.3781,1.3781,1.3781,1.2739,1.2816,1.2861,1.2969,1.3028,1.3109,1.3153,1.3215,1.3276,1.3379,1.3447,1.3501,1.358,1.3673,1.3749,1.3772,1.3801,1.3794,1.3823,1.381,1.3811,1.3813,1.3797,1.38,1.38,1.3829,1.3829,1.383]},{"header":{"parameterUnit":"m.s-1","parameterCategory":1,"la1":30.2991,"la2":30.254,"lo1":-89.0895,"lo2":-89.0444,"dy":0.0017,"dx":0.0017,"nx":28,"ny":28,"refTime":"2025-07-07T09:00:00:Z","depth":0,"parameterNumber":3,"parameterNumberName":"V-component_of_WINDS"},"data":[0,0,0,0,0,0,0,0,0,0,0,0,0,0,0,0,0,0,0,0,0,0,0,0,0,0,0,0,0,0,0,0,0,0,0,0,0,0,0,0,0,0,0,0,0,0,0,0,0,0,0,0,0,0,0,0,0,0,4.6837,4.6837,0,4.683,4.683,4.683,4.6811,4.6811,4.681,4.681,4.6802,4.6802,4.6803,0,0,0,0,0,0,0,0,0,0,0,0,0,4.6835,4.6835,4.6837,4.6837,4.6837,4.683,4.683,4.683,4.6811,4.6811,4.681,4.681,4.6802,4.6802,4.6803,0,0,0,0,0,0,0,0,0,0,0,0,0,4.6833,4.6835,4.6837,4.6827,4.6826,4.683,4.683,4.683,4.6811,4.6811,4.681,4.681,4.6802,4.6802,4.6803,4.6816,0,0,4.6803,4.6803,0,0,0,0,0,0,0,0,4.6833,4.6833,4.6829,4.6828,4.6827,4.6821,4.6826,4.6825,4.6812,4.6817,4.681,4.6809,4.6809,4.6809,4.6808,4.6815,4.6815,4.6803,4.6803,4.6804,4.6804,0,0,0,0,0,0,0,4.6833,4.6833,4.6834,4.6829,4.6827,4.6823,4.6822,4.6826,4.6816,4.6816,4.6815,4.6815,4.6808,4.6808,4.6808,4.6815,4.6803,4.6804,4.6804,4.6804,4.6833,4.6834,0,0,0,0,0,0,4.6835,4.6833,4.6835,4.6834,4.6828,4.6823,4.6822,4.6823,4.6816,4.6815,4.6815,4.6814,4.6808,4.6808,4.6808,4.6823,4.6804,4.6804,4.6804,4.6832,4.6833,4.6834,0,0,0,0,0,0,4.6835,4.6835,4.6835,4.6833,4.6833,4.6824,4.6825,4.6824,4.6824,4.6815,4.6813,4.6817,4.6808,4.6807,4.6814,4.6823,4.6804,4.6804,4.6832,4.6833,4.6834,4.6854,0,0,0,0,0,0,4.6835,4.6835,4.684,4.6834,4.6833,4.6841,4.6826,4.6824,4.6824,4.6822,4.6816,4.6815,4.6807,4.6814,4.6814,4.6823,4.6804,4.6831,4.6832,4.6833,4.6852,4.6855,4.6858,0,0,0,0,0,4.6835,4.6846,4.684,4.684,4.6839,4.6842,4.6842,4.6833,4.6825,4.683,4.6824,4.6815,4.6822,4.6815,4.6815,4.6823,4.683,4.6832,4.6833,4.6851,4.6855,4.6858,0,0,0,0,0,0,4.6853,4.6844,4.6838,4.6848,4.6846,4.6839,4.6844,4.6837,4.6837,4.6835,4.6824,4.6823,4.6831,4.6828,4.682,4.6836,4.6824,4.6826,4.6838,4.6841,4.6844,4.6844,4.6805,0,0,0,0,0,4.6858,4.6861,4.6854,4.6862,4.6862,4.6854,4.6854,4.6848,4.6845,4.6844,4.6839,4.6837,4.6839,4.684,4.6841,4.6852,4.685,4.6858,4.6861,4.6863,4.6864,4.687,4.6874,4.6839,4.6839,4.6839,0,0,4.6868,4.6864,4.6867,4.6866,4.6864,4.6867,4.6853,4.6857,4.6859,4.6845,4.6851,4.6847,4.6844,4.6853,4.6857,4.6851,4.6874,4.6865,4.6867,4.6867,4.6872,4.6875,4.6878,4.684,4.6839,4.6839,0,0,4.6889,4.6886,4.6894,4.6892,4.6889,4.6883,4.6885,4.6879,4.6877,4.6883,4.6872,4.6875,4.6878,4.6876,4.6875,4.6897,4.6888,4.6897,4.6911,4.6917,4.692,4.6923,4.693,4.6933,4.6899,4.6899,4.6899,0,4.6903,4.6907,4.6898,4.6903,4.6904,4.6891,4.6898,4.6897,4.6894,4.6894,4.6888,4.6892,4.6888,4.6897,4.6902,4.6902,4.6904,4.6898,4.6921,4.6923,4.6925,4.6932,4.6935,4.69,4.69,4.69,4.6899,0,4.6924,4.6928,4.6934,4.6932,4.6933,4.6939,4.6931,4.6933,4.6927,4.6922,4.6929,4.6925,4.6925,4.6926,4.692,4.6934,4.6931,4.6923,4.6911,4.693,4.6936,4.6939,4.6901,4.6901,4.6901,4.69,0,0,4.6955,4.6949,4.6952,4.6951,4.6947,4.6949,4.6955,4.6956,4.6958,4.6956,4.6961,4.6964,4.6957,4.6956,4.695,4.6955,4.6973,4.6946,4.6946,4.6951,4.6988,4.6994,4.6998,4.6967,4.6968,4.6968,4.6989,0,4.6975,4.6985,4.6977,4.6988,4.6992,4.698,4.6985,4.6984,4.698,4.6982,4.6977,4.698,4.697,4.6969,4.6974,4.6969,4.698,4.6968,4.6971,4.6971,4.6972,4.7001,4.7008,4.7027,4.6991,4.6992,4.6992,0,4.6999,4.6999,4.7011,4.7007,4.7008,4.7013,4.7013,4.7015,4.7013,4.701,4.701,4.7002,4.7008,4.6996,4.7004,4.6996,4.6997,4.6995,4.6996,4.6995,4.6983,4.7002,4.7033,4.7036,4.6996,4.6996,4.6995,0,4.7021,4.7024,4.7032,4.7031,4.7027,4.703,4.7029,4.7026,4.7027,4.7027,4.7028,4.7029,4.7029,4.703,4.7023,4.7015,4.7031,4.7019,4.7029,4.7029,4.7032,4.7032,4.7064,4.7033,4.7033,4.7033,4.7033,0,4.7043,4.7051,4.7042,4.7046,4.7054,4.7046,4.7054,4.7051,4.7049,4.7053,4.7043,4.7047,4.7037,4.704,4.7034,4.7042,4.7042,4.704,4.7038,4.704,4.7041,4.7041,4.7039,4.7034,4.7034,4.7034,4.7033,0,4.7069,4.7063,4.707,4.7066,4.7065,4.7071,4.7067,4.7071,4.7067,4.7072,4.7072,4.7066,4.7069,4.7062,4.7063,4.706,4.707,4.7066,4.7071,4.707,4.708,4.7079,4.7113,4.7117,4.7084,4.7084,4.7084,0,4.7084,4.7089,4.7085,4.7088,4.7086,4.709,4.7091,4.7083,4.7085,4.7083,4.7088,4.709,4.7091,4.7096,4.7092,4.7093,4.7089,4.7101,4.7089,4.7092,4.7089,4.7089,4.709,4.7103,4.7104,4.7104,4.7104,0,4.711,4.7107,4.711,4.7111,4.7113,4.7114,4.7114,4.7116,4.7107,4.711,4.7113,4.7114,4.7116,4.7119,4.7119,4.7117,4.711,4.7108,4.7111,4.7113,4.7116,4.7114,4.7078,4.7107,4.7107,4.7107,4.7107,4.7107,4.7131,4.7136,4.7134,4.7137,4.7136,4.7137,4.7141,4.7137,4.714,4.7141,4.7136,4.7141,4.7139,4.7139,4.7138,4.7141,4.7136,4.7139,4.714,4.7141,4.7143,4.7115,4.7141,4.7141,4.7141,4.7141,4.7141,0,4.7157,4.7156,4.7159,4.7159,4.7162,4.7155,4.7155,4.7157,4.7161,4.7161,4.7162,4.7166,4.7169,4.7164,4.7166,4.717,4.7166,4.7171,4.717,4.717,4.7147,4.7145,4.7173,4.7173,4.7173,4.7173,4.7173,4.7173,4.7171,4.7179,4.7176,4.7184,4.7182,4.7187,4.7187,4.7187,4.7187,4.7192,4.7194,4.7191,4.7189,4.7191,4.7193,4.7192,4.7193,4.7198,4.7196,4.7175,4.7171,4.7168,4.7166,4.7199,4.7199,4.7218,4.7219,4.7219]}]]